Flag for Japan Weather past 2 weeks in Fukushima, Japan

Now
66 °F

Mild.


Feels Like: 66 °F
Forecast: 48 / 72 °F
Wind: 3 mph from West

Location: Wakamatsu

Current Time: Oct 26, 2014 at 1:42:09 PM

Latest Report: Oct 26, 2014 at 1:00 PM


Visibility: 13 mi

Pressure: 30.06 "Hg

Humidity: 55%

Dew point: 49 °F

Location of FukushimaLocation

Historic Weather in Fukushima — Graph

°F

Fukushima temperature yesterday

Maximum temperature yesterday: 66 °F (at 3:00 PM)
Minimum temperature yesterday: 45 °F (at 2:00 AM)
Average temperature yesterday: 52 °F

Past Weeks' High & Low Weather Summary

 TemperatureHumidityPressure
High70 °F (Oct 11, 1:00 PM)100% (Oct 25, 4:00 AM)30.44 "Hg (Oct 25, 4:00 AM)
Low40 °F (Oct 19, 6:00 AM)37% (Oct 18, 1:00 PM)29.12 "Hg (Oct 14, 3:00 AM)
Average55 °F81%30.10 "Hg
* Reported Oct 11 12:00 Noon — Oct 26 12:00 Noon, Fukushima, Weather by CustomWeather, © 2014

Note: Actual official high and low records may vary slightly from our data, if they occured in-between our weather recording intervals... More about our weather records

Advertising

Fukushima weather history for previous 24 hours

 ConditionsComfort  
Time TempWeatherWind HumidityBarometerVisibility
12:00 PM
Oct 26
63 °FMild.2 mph63%30.10 "Hg12 mi
11:00 AM59 °FCool.2 mph71%30.15 "Hg11 mi
10:00 AM51 °FCool.3 mph93%30.20 "Hg6 mi
9:00 AM46 °FCool.1 mph100%30.23 "Hg1 mi
8:00 AM45 °FDuststorm.1 mph100%30.26 "Hg0 mi
7:00 AM44 °FLight rain. Cloudy.1 mph99%30.26 "Hg0 mi
6:00 AM43 °FLight rain. Cloudy.No wind100%30.25 "Hg0 mi
5:00 AM44 °FLight rain. Cloudy.1 mph99%30.25 "Hg0 mi
4:00 AM43 °FLight rain. Overcast.2 mph98%30.25 "Hg0 mi
3:00 AM44 °FFog.No wind98%30.24 "Hg6 mi
2:00 AM44 °FFog.1 mph98%30.24 "Hg3 mi
1:00 AM46 °FCool.2 mph97%30.25 "Hg8 mi
12:00 AM46 °FCool.1 mph96%30.24 "Hg8 mi
11:00 PM
Oct 25
48 °FCool.2 mph96%30.24 "Hg11 mi
10:00 PM49 °FCool.2 mph95%30.24 "Hg11 mi
9:00 PM50 °FCool.2 mph90%30.25 "Hg12 mi
8:00 PM51 °FCool.2 mph88%30.24 "Hg12 mi
7:00 PM53 °FCool.1 mph90%30.22 "Hg12 mi
6:00 PM55 °FCool.2 mph87%30.21 "Hg12 mi
5:00 PM61 °FCool.5 mph72%30.18 "Hg12 mi
4:00 PM66 °FMild.2 mph52%30.16 "Hg12 mi
3:00 PM66 °FMild.2 mph56%30.15 "Hg12 mi
2:00 PM65 °FMild.3 mph58%30.16 "Hg12 mi
1:00 PM61 °FCool.2 mph68%30.19 "Hg12 mi
Weather by CustomWeather, © 2014

See weather overviewHow to use our weather pages